Location: Le Rocchette
(44.3500°N, 7.8333°E)
Time: 05:34:27
(UTC+00:00)

Cosmos 1980 Rocket - Pass Details

Date: 17 November 2019
Orbit: 827 x 851 km, 71.0° (Epoch: 05 December)

Event Time Altitude Azimuth Distance (km) Brightness Sun altitude
Exits shadow 03:20:02 46° 118° (ESE) 1,128 3.0 -33.2°
Drops below altitude 10° 03:24:09 10° 143° (SE) 2,465 4.9 -32.5°
Sets 03:26:36 0° 146° (SSE) 3,393 5.7 -32.0°
